Flag for Argentina Weather past 2 weeks in Tucumán, Tucumán, Argentina

Now
55 °F

Clear.


Feels Like: 54 °F
Forecast: 48 / 72 °F
Wind: 7 mph from Northwest

Location: Tucuman Aerodrome

Current Time: Jul 29, 2014 at 10:50:53 PM

Latest Report: Jul 29, 2014 at 10:00 PM


Visibility: 3 mi

Pressure: 30.04 "Hg

Humidity: 72%

Dew point: 46 °F

Location of TucumánLocation

Historic Weather in Tucumán — Graph

°F

Tucumán temperature yesterday

Maximum temperature yesterday: 72 °F (at 4:00 PM)
Minimum temperature yesterday: 41 °F (at 7:00 AM)
Average temperature yesterday: 54 °F

Past Weeks' High & Low Weather Summary

 TemperatureHumidityPressure
High75 °F (Jul 19, 4:00 PM)94% (Jul 21, 4:00 AM)30.48 "Hg (Jul 21, 4:00 AM)
Low36 °F (Jul 25, 3:00 AM)27% (Jul 24, 5:00 PM)29.71 "Hg (Jul 21, 4:00 PM)
Average56 °F65%30.09 "Hg
* Reported Jul 14 9:00 PM — Jul 29 9:00 PM, Tucumán, Weather by CustomWeather, © 2014

Note: Actual official high and low records may vary slightly from our data, if they occured in-between our weather recording intervals... More about our weather records

Advertising

Tucumán weather history for previous 24 hours

 ConditionsComfort  
Time TempWeatherWind HumidityBarometerVisibility
9:00 PM
Jul 29
61 °FClear.9 mph59%30.04 "Hg2 mi
8:00 PM64 °FClear.3 mph52%30.04 "Hg4 mi
7:00 PM64 °FClear.6 mph56%30.01 "Hg4 mi
6:00 PM72 °FClear.7 mph41%29.98 "Hg4 mi
5:00 PM72 °FClear.3 mph41%29.95 "Hg4 mi
4:00 PM72 °FClear.2 mph41%29.95 "Hg5 mi
3:00 PM72 °FClear.7 mph38%29.98 "Hg5 mi
2:00 PM70 °FClear.9 mph40%29.98 "Hg5 mi
1:00 PM70 °FClear.7 mph40%30.01 "Hg5 mi
12:00 PM68 °FClear.7 mph40%29.98 "Hg5 mi
11:00 AM61 °FClear.6 mph55%29.98 "Hg5 mi
9:00 AM48 °FClear.9 mph76%29.95 "Hg6 mi
8:00 AM46 °FClear.9 mph82%29.95 "Hg6 mi
7:00 AM46 °FClear.6 mph76%29.95 "Hg5 mi
6:00 AM46 °FClear.3 mph76%29.92 "Hg5 mi
5:00 AM48 °FCool.5 mph76%29.92 "Hg4 mi
4:00 AM52 °FClear.2 mph50%29.92 "Hg5 mi
3:00 AM54 °FClear.7 mph67%29.95 "Hg4 mi
2:00 AM55 °FClear.12 mph59%29.95 "Hg5 mi
1:00 AM55 °FClear.14 mph55%29.95 "Hg4 mi
12:00 AM50 °FClear.7 mph76%29.98 "Hg4 mi
11:00 PM
Jul 28
52 °FClear.7 mph77%30.01 "Hg4 mi
10:00 PM55 °FClear.7 mph67%30.01 "Hg4 mi
Weather by CustomWeather, © 2014

See weather overviewHow to use our weather pages